Wind_Speed
18 17 16 15 15 15 15 11 7 6 6 6 6 6 6 7 8 11 12 2 9 13 9 10 5 3 6 14 15 20 1 9 11 11 3 21 11 8 20 23 7 10 23 26 24
18 17 17 16 15 14 14 13 8 6 6 6 6 6 7 9 12 17 9 8 13 10 15 7 6 7 11 15 10 6 2 9 10 14 7 13 18 21 19 31 28 30 26 25 23
19 18 18 17 15 14 13 14 9 7 5 5 6 6 7 8 11 10 9 6 12 10 8 9 12 14 18 20 28 15 10 11 21 11 11 4 7 17 18 14 33 32 30 24 21
19 18 18 17 16 14 13 12 10 7 6 5 5 6 7 5 2 5 2 7 6 7 8 2 6 13 5 9 28 6 25 25 25 15 5 5 19 4 22 27 34 32 28 22 16
19 19 18 18 17 15 13 11 10 8 6 6 5 6 6 5 13 5 4 6 7 10 9 9 14 16 9 10 21 10 9 19 12 13 11 6 12 14 22 36 33 28 24 20 17
19 19 19 19 17 16 13 10 9 7 6 5 6 7 6 6 2 6 4 8 9 9 6 10 18 16 22 16 7 21 12 16 5 9 7 3 12 20 30 33 30 26 21 16 12
19 19 19 19 18 17 13 9 7 5 5 6 6 7 11 17 8 3 10 10 7 3 11 17 16 10 18 11 15 15 4 1 6 6 5 2 5 8 31 27 28 24 21 16 19
20 19 19 19 19 17 13 9 7 5 5 6 6 6 10 10 12 14 6 9 8 11 11 12 14 12 12 19 17 8 3 3 9 3 3 8 4 3 25 31 30 25 20 17 20
21 21 20 19 19 17 12 8 6 5 5 6 6 6 12 5 16 21 11 14 12 8 9 8 10 9 17 6 7 2 3 7 9 14 7 7 4 12 17 23 27 25 23 19 20
23 22 20 18 18 17 9 7 7 7 6 8 8 8 14 17 16 14 17 14 13 11 11 11 6 3 6 1 6 7 8 9 9 8 10 7 8 8 12 25 23 26 24 25 25
24 23 21 18 16 13 5 5 6 1 10 12 9 14 16 5 16 14 16 15 16 7 6 14 3 7 12 11 12 11 7 10 9 10 12 10 8 10 19 28 25 27 29 30 31
24 24 22 17 12 5 8 6 6 9 11 19 28 30 32 15 13 14 17 17 13 6 9 5 9 13 13 13 11 10 10 9 9 7 8 10 9 9 7 19 33 33 33 33 34
24 24 23 17 6 4 8 12 8 14 6 16 29 31 28 19 16 15 15 21 7 9 10 9 13 13 16 11 9 9 3 6 6 9 2 6 2 4 8 11 30 36 36 33 34
24 22 22 20 4 7 3 7 7 12 3 7 10 24 30 26 13 19 21 18 10 11 11 9 17 15 7 3 6 6 8 6 10 7 2 3 5 6 7 11 8 28 37 34 33
23 20 19 16 15 8 7 13 11 3 3 5 11 7 18 32 3 23 22 24 12 12 7 10 10 8 5 2 5 8 1 5 6 6 6 9 3 6 8 6 9 17 37 33 26
23 19 20 10 15 1 9 15 6 0 7 3 7 5 9 20 25 14 23 21 17 11 12 8 23 4 4 6 8 8 3 8 6 4 4 6 4 8 7 5 7 4 31 27 21
24 18 18 16 8 3 7 6 0 4 7 7 9 9 9 10 14 14 13 8 7 5 6 8 14 9 5 2 8 4 6 3 4 3 5 4 4 13 2 5 5 13 24 32 28
25 18 15 16 9 5 6 3 4 10 10 8 4 13 13 10 12 14 9 9 8 8 4 8 7 12 8 9 9 5 8 6 5 2 5 5 3 5 6 15 15 14 23 25 35
23 15 16 11 5 6 6 4 6 5 7 8 3 4 7 11 9 11 12 10 9 11 9 4 8 7 10 7 10 5 2 10 6 4 3 4 7 2 7 7 8 6 28 35 44
22 18 9 12 9 9 3 5 7 13 17 14 5 3 5 9 6 13 11 12 13 14 17 9 6 8 11 12 7 7 4 2 1 2 5 2 5 2 8 10 9 3 19 34 40
13 9 6 17 14 9 4 6 9 23 22 7 3 8 11 12 15 4 12 2 9 15 13 11 6 6 6 2 7 1 3 3 4 5 5 2 4 3 3 5 8 26 10 35 38
5 4 17 13 5 7 7 6 9 21 28 4 1 6 8 11 9 6 5 6 10 6 4 0 3 6 9 8 3 8 3 5 5 6 1 2 3 7 10 8 6 3 33 25 33
4 9 13 15 4 6 12 16 24 19 11 6 4 6 8 6 5 7 12 2 4 5 3 3 4 2 8 7 7 6 3 5 4 2 4 2 5 8 18 19 32 16 26 31 35
4 3 9 15 16 8 5 8 10 15 2 9 6 5 7 7 6 5 6 5 10 7 9 5 2 3 6 6 3 4 6 9 7 3 4 5 6 5 4 9 12 24 30 34 30
3 6 10 2 7 10 8 7 12 8 9 1 6 9 7 5 7 6 5 7 9 12 4 5 2 1 5 8 10 5 5 8 7 10 9 15 17 4 5 5 5 1 7 27 28
5 7 12 15 14 8 6 5 9 11 5 5 7 9 8 5 6 5 6 7 3 3 4 2 2 1 5 8 9 13 12 6 9 7 6 8 6 8 18 9 2 10 20 25 24
6 11 8 8 7 6 5 7 7 9 12 14 4 2 3 5 14 12 9 10 7 5 2 3 3 2 3 6 8 8 7 8 3 5 9 7 9 5 8 11 23 31 21 28 26
Wind_Direction
360 356 353 353 351 352 355 347 330 310 294 282 274 273 271 268 266 265 255 243 260 285 287 280 253 266 286 278 265 260 301 277 281 291 92 161 119 149 128 135 145 185 152 142 136
355 351 349 348 345 345 346 348 328 317 298 285 276 271 270 273 277 265 210 255 267 286 282 201 215 237 245 250 260 216 206 247 273 303 205 120 113 151 131 119 108 113 132 147 156
353 350 348 346 342 339 339 343 331 316 298 280 274 274 276 291 303 296 226 227 244 267 203 224 265 274 238 248 247 249 232 250 267 258 80 37 96 155 143 123 138 138 148 160 171
351 349 348 345 340 335 334 336 332 316 302 274 269 277 275 280 308 320 105 208 225 191 178 199 271 278 269 244 255 232 244 243 265 318 162 179 122 98 106 143 144 143 151 159 180
348 347 347 344 339 333 329 328 330 315 301 282 270 279 281 262 253 230 277 192 188 189 204 234 270 248 252 246 259 246 255 273 291 311 331 123 137 115 121 138 138 140 152 159 182
346 345 345 342 338 332 324 318 323 315 299 290 281 279 276 256 234 209 245 179 180 196 255 273 269 276 262 265 257 260 238 264 283 289 283 332 113 105 125 131 134 142 152 164 181
344 342 341 340 336 332 322 310 310 304 305 301 294 275 262 234 200 281 211 188 172 229 280 303 331 300 314 321 309 293 318 242 291 259 274 165 85 132 139 141 142 152 161 171 155
342 340 338 338 334 331 320 305 296 281 280 290 295 280 262 233 227 228 186 214 242 261 276 299 320 325 306 300 310 293 351 318 263 204 309 104 264 327 160 153 155 158 165 176 161
340 339 337 335 333 331 318 299 283 274 261 270 283 259 268 244 211 214 206 217 229 237 260 280 315 295 297 317 321 291 245 254 272 190 182 131 199 259 187 163 159 163 172 180 168
338 337 336 335 333 329 318 295 275 263 259 264 237 284 253 213 205 217 212 219 240 223 231 238 241 228 305 327 246 240 220 244 232 224 191 177 189 227 225 171 171 171 181 188 183
336 335 334 333 332 326 329 326 326 227 227 225 224 215 293 217 206 202 207 214 242 245 224 241 196 229 234 242 243 268 275 273 284 231 171 193 191 213 236 172 178 185 191 197 197
334 333 332 331 332 348 355 354 19 323 293 266 263 254 260 264 184 200 198 208 216 251 243 278 232 231 235 246 245 260 266 286 303 342 134 188 209 223 204 184 188 197 201 203 201
331 332 330 330 319 335 332 322 306 334 281 278 241 234 241 249 210 205 215 203 199 226 252 217 250 236 234 254 285 257 263 304 292 313 21 126 244 251 280 252 200 200 204 206 202
327 330 329 330 304 304 7 344 354 321 305 260 207 235 228 237 222 220 210 222 212 240 231 238 259 262 266 273 318 326 295 346 311 300 215 113 260 264 248 256 241 202 202 206 206
321 325 318 328 310 306 13 343 322 324 324 173 174 196 193 207 179 210 217 207 220 224 225 247 262 273 269 182 288 249 343 354 2 9 50 328 72 277 329 294 270 218 197 201 203
314 317 307 306 294 300 351 327 312 300 248 231 122 162 181 201 214 243 207 220 217 256 274 262 285 280 250 195 227 252 80 21 2 43 7 293 345 302 281 288 335 218 177 191 202
308 308 289 282 218 347 339 328 329 229 278 184 162 180 201 202 201 220 197 190 189 211 269 292 277 271 237 326 320 254 78 12 346 345 233 223 281 242 265 87 54 77 81 90 111
305 306 279 261 253 217 338 335 242 238 245 311 239 193 182 211 194 213 195 202 202 232 256 213 281 231 212 175 203 244 138 139 232 241 256 211 251 314 106 64 53 68 97 94 121
309 307 278 240 141 142 259 221 214 231 318 2 233 266 297 201 166 198 222 186 207 198 220 284 272 319 312 157 156 264 193 200 190 278 314 246 299 12 21 42 79 70 104 100 108
319 324 295 144 188 189 212 249 252 280 306 313 317 295 271 278 227 187 199 198 215 213 186 233 260 284 314 132 175 171 210 25 355 180 248 287 325 254 1 351 1 93 116 111 114
319 324 128 147 179 191 218 230 254 265 264 297 324 314 310 309 321 256 210 206 224 218 189 200 161 283 357 259 169 37 298 273 144 139 190 190 266 174 18 340 330 336 163 128 126
300 268 174 179 172 211 229 242 245 277 290 179 36 288 296 308 314 310 91 41 18 37 38 193 175 202 233 268 102 80 121 71 88 336 355 195 268 30 358 4 168 338 108 114 121
314 278 205 182 223 235 256 245 249 265 272 168 184 260 277 290 324 353 85 336 53 57 71 331 335 64 338 340 19 65 100 86 113 91 77 109 256 37 17 349 334 110 137 125 116
313 281 203 202 233 283 312 293 283 267 285 313 332 254 276 302 287 306 331 167 143 121 131 93 102 108 191 244 147 208 179 138 111 87 279 229 261 317 89 316 325 334 108 112 118
234 259 338 239 231 233 218 278 302 302 162 247 343 311 268 314 288 282 257 286 129 156 119 104 154 343 303 306 314 298 212 172 163 200 204 252 245 124 76 16 25 88 12 109 116
279 346 332 305 315 307 301 237 261 287 311 206 192 251 285 283 270 305 18 10 264 232 129 108 181 295 303 305 309 305 308 281 191 209 227 248 264 158 163 102 50 259 200 131 116
306 303 320 292 315 317 260 288 292 280 301 282 341 143 345 12 6 360 25 13 0 31 45 110 105 48 269 315 321 292 274 281 186 178 211 215 236 207 187 172 181 196 233 133 126
Height
1540 1538 1536 1534 1532 1529 1527 1525 1524 1523 1522 1521 1521 1520 1520 1519 1519 1518 1517 1517 1518 1519 1519 1519 1520 1521 1522 1521 1519 1520 1533 1531 1520 1513 1510 1514 1503 1510 1510 1515 1521 1525 1531 1538 1540
1540 1538 1536 1533 1531 1529 1526 1524 1523 1521 1521 1520 1519 1519 1519 1518 1517 1515 1515 1514 1516 1517 1518 1518 1518 1520 1521 1520 1518 1518 1530 1521 1508 1507 1510 1503 1502 1506 1513 1515 1524 1528 1534 1540 1540
1540 1537 1535 1532 1530 1528 1526 1524 1522 1520 1519 1519 1518 1518 1517 1517 1516 1509 1511 1512 1515 1516 1517 1517 1517 1519 1519 1516 1514 1513 1520 1508 1505 1507 1499 1496 1499 1503 1507 1517 1519 1525 1532 1539 1539
1539 1537 1534 1531 1529 1527 1525 1523 1521 1519 1519 1518 1518 1517 1517 1517 1518 1509 1510 1512 1514 1516 1517 1516 1516 1516 1515 1515 1508 1515 1505 1502 1501 1501 1501 1495 1495 1504 1504 1514 1520 1525 1531 1536 1539
1539 1536 1533 1530 1527 1525 1523 1521 1520 1518 1518 1517 1517 1517 1517 1516 1511 1510 1510 1511 1514 1515 1516 1516 1516 1514 1514 1508 1508 1507 1501 1499 1499 1498 1497 1498 1497 1504 1510 1515 1522 1526 1532 1536 1539
1537 1534 1531 1528 1526 1523 1522 1520 1519 1517 1516 1516 1516 1516 1516 1515 1508 1509 1510 1511 1513 1514 1513 1514 1513 1513 1508 1506 1507 1498 1497 1496 1497 1498 1498 1501 1501 1502 1513 1516 1520 1525 1530 1535 1539
1536 1533 1530 1527 1524 1521 1519 1518 1517 1516 1515 1515 1515 1514 1513 1508 1509 1509 1509 1511 1513 1513 1512 1512 1512 1511 1508 1504 1498 1496 1500 1498 1496 1498 1498 1499 1507 1507 1510 1514 1519 1523 1527 1532 1535
1535 1532 1529 1525 1522 1519 1517 1516 1515 1515 1514 1514 1514 1513 1508 1504 1506 1509 1509 1511 1511 1512 1514 1512 1510 1509 1509 1506 1500 1500 1499 1516 1500 1497 1499 1500 1520 1507 1508 1510 1515 1519 1524 1530 1532
1534 1531 1527 1524 1520 1517 1515 1514 1514 1514 1513 1513 1514 1513 1506 1503 1503 1505 1507 1510 1510 1512 1513 1513 1512 1512 1509 1512 1518 1503 1523 1516 1507 1494 1497 1501 1513 1504 1509 1508 1512 1516 1522 1527 1531
1533 1529 1526 1522 1519 1515 1513 1512 1512 1513 1513 1512 1513 1516 1502 1498 1501 1504 1506 1508 1509 1510 1512 1513 1513 1514 1513 1519 1541 1523 1519 1511 1508 1496 1494 1501 1506 1501 1504 1507 1509 1513 1517 1521 1524
1531 1527 1523 1520 1517 1514 1513 1512 1513 1513 1511 1507 1503 1497 1494 1495 1499 1501 1504 1507 1507 1508 1512 1509 1518 1525 1515 1508 1505 1504 1508 1510 1496 1485 1491 1499 1502 1500 1497 1501 1504 1507 1510 1513 1517
1529 1525 1521 1518 1515 1514 1513 1513 1514 1515 1506 1501 1498 1498 1493 1495 1497 1499 1503 1505 1506 1510 1507 1512 1519 1503 1500 1499 1500 1500 1506 1507 1492 1481 1488 1497 1501 1494 1494 1494 1496 1500 1503 1506 1510
1527 1524 1520 1516 1514 1514 1512 1513 1513 1511 1507 1490 1487 1489 1489 1492 1493 1496 1499 1501 1503 1508 1506 1514 1500 1496 1497 1497 1500 1498 1502 1502 1502 1487 1485 1493 1503 1495 1490 1490 1490 1492 1495 1500 1503
1525 1523 1519 1514 1516 1513 1512 1512 1511 1510 1514 1485 1476 1479 1486 1489 1489 1492 1495 1499 1500 1505 1502 1502 1492 1492 1492 1495 1495 1509 1492 1494 1496 1502 1523 1495 1538 1502 1492 1490 1486 1486 1488 1492 1497
1522 1520 1518 1518 1514 1512 1513 1512 1512 1511 1534 1465 1469 1470 1475 1480 1482 1486 1490 1494 1497 1498 1498 1502 1494 1492 1494 1492 1492 1502 1491 1495 1498 1509 1511 1510 1527 1513 1494 1494 1486 1477 1479 1486 1491
1519 1518 1514 1516 1512 1512 1510 1510 1511 1520 1522 1468 1465 1469 1474 1476 1480 1483 1487 1490 1493 1495 1492 1492 1485 1487 1486 1484 1488 1488 1493 1500 1504 1514 1543 1518 1524 1516 1505 1494 1482 1471 1474 1484 1488
1514 1513 1511 1510 1510 1511 1511 1510 1519 1522 1471 1467 1468 1467 1472 1474 1478 1480 1486 1490 1500 1510 1508 1495 1489 1482 1481 1488 1488 1490 1512 1546 1550 1547 1550 1510 1522 1509 1489 1485 1483 1479 1485 1489 1490
1509 1507 1505 1503 1506 1509 1511 1512 1523 1486 1479 1461 1460 1462 1472 1470 1475 1478 1483 1492 1488 1494 1504 1512 1515 1483 1476 1485 1497 1496 1507 1549 1552 1553 1539 1505 1523 1510 1488 1485 1486 1489 1489 1491 1497
1505 1502 1497 1499 1503 1507 1512 1520 1504 1485 1470 1470 1460 1468 1471 1464 1469 1476 1480 1486 1483 1486 1506 1504 1498 1474 1469 1472 1483 1494 1508 1499 1523 1520 1535 1521 1506 1495 1491 1490 1490 1493 1493 1497 1502
1501 1497 1493 1495 1500 1507 1510 1508 1491 1479 1476 1473 1480 1469 1478 1470 1471 1474 1477 1472 1475 1474 1477 1487 1506 1478 1470 1470 1478 1488 1488 1517 1519 1540 1544 1523 1520 1517 1505 1502 1496 1495 1497 1501 1507
1503 1500 1495 1494 1500 1504 1508 1498 1486 1479 1477 1475 1476 1478 1477 1477 1471 1466 1468 1466 1465 1466 1469 1476 1489 1490 1480 1482 1489 1492 1500 1498 1509 1523 1548 1552 1532 1512 1510 1506 1504 1501 1500 1504 1505
1503 1501 1495 1495 1500 1497 1497 1489 1482 1476 1473 1470 1474 1478 1479 1476 1475 1466 1472 1467 1464 1468 1478 1481 1485 1502 1492 1477 1477 1488 1506 1511 1536 1538 1533 1533 1538 1521 1517 1510 1504 1507 1501 1512 1508
1502 1498 1493 1493 1498 1494 1486 1482 1478 1474 1471 1471 1475 1476 1474 1478 1484 1470 1472 1469 1470 1474 1480 1481 1496 1508 1503 1492 1485 1495 1501 1509 1514 1526 1535 1558 1543 1515 1515 1518 1516 1503 1502 1508 1510
1505 1497 1490 1490 1487 1487 1488 1481 1476 1466 1468 1471 1473 1472 1475 1478 1473 1475 1474 1470 1471 1476 1478 1479 1489 1503 1525 1505 1495 1499 1499 1503 1520 1539 1536 1535 1524 1514 1519 1523 1521 1524 1500 1502 1509
1504 1494 1489 1485 1485 1484 1484 1480 1476 1474 1466 1470 1475 1476 1476 1482 1476 1477 1472 1472 1473 1475 1476 1482 1498 1494 1494 1490 1487 1490 1498 1500 1512 1512 1524 1507 1505 1510 1513 1516 1518 1523 1525 1512 1509
1503 1498 1492 1490 1483 1481 1478 1476 1475 1471 1472 1472 1476 1474 1475 1481 1478 1480 1476 1478 1477 1478 1479 1482 1499 1492 1498 1490 1489 1493 1488 1489 1498 1499 1506 1502 1507 1501 1508 1507 1507 1517 1529 1515 1514
1502 1499 1496 1487 1484 1483 1480 1476 1474 1473 1470 1471 1470 1472 1475 1481 1479 1479 1478 1478 1480 1481 1483 1487 1495 1502 1509 1493 1495 1505 1493 1489 1487 1491 1493 1503 1496 1493 1497 1497 1500 1497 1525 1510 1511